Simultaneous Nadir Overpasses (SNOs) Predictions

Prediction of SNOs near equator between AQUA and NPP Satellite Orbit:

Table of predicted SNOs near equator for the next 14.0 days since TLE Epoch: 3/6/2020
Index Date (AQUA) Time (AQUA) AQUA Lat,Lon Date (NPP) Time (NPP) NPP Lat,Lon Distance(km) Time Diff (sec)
1 03/08/2020 00:58:20 3.27,-171.11 03/08/2020 00:49:09 3.16,-171.60 56.15 551
2 03/08/2020 01:46:28 1.24, -2.49 03/08/2020 01:38:32 1.40, -3.25 86.11 476
3 03/10/2020 16:26:05 -6.21, 136.53 03/10/2020 16:16:05 -6.13, 136.20 36.96 600
4 03/10/2020 17:14:19 1.60, -54.86 03/10/2020 17:05:35 1.47, -55.45 67.33 524
5 03/10/2020 18:02:27 2.91, 113.75 03/10/2020 17:54:58 3.10, 112.90 97.09 449
6 03/13/2020 08:42:05 -4.55,-107.23 03/13/2020 08:32:33 -4.49,-107.66 48.30 572
7 03/13/2020 09:30:20 0.00, 61.37 03/13/2020 09:22:03 -0.17, 60.68 78.64 497
8 03/16/2020 00:16:11 29.97,-164.85 03/16/2020 00:06:11 30.47,-165.53 85.83 600
9 03/16/2020 00:58:05 -2.90, 9.01 03/16/2020 00:49:00 -2.80, 8.49 59.47 545
10 03/16/2020 01:46:19 -1.71, 177.62 03/16/2020 01:38:30 -1.87, 176.83 89.77 469
11 03/18/2020 16:25:56 5.72, -43.35 03/18/2020 16:16:04 5.66, -43.72 40.91 592
12 03/18/2020 17:14:05 -1.25, 125.25 03/18/2020 17:05:27 -1.10, 124.64 70.82 518




NCC Satellite Simultaneous Nadir Overpasses (SNOs) Prediction Service
